Wind_Speed
17 17 16 15 13 12 11 14 19 15 11 13 17 19 14 12 14 15 15 16 16 15 14 14 14 14 14 14 13 12 11 11 11 11 11 10 11 11 11 11 11 11 11 12 13 15 16 17 17 17 18 18 18 17 17 16 16 16 17 18 19 18 18 18 18 18 18 18 18 17 16 16 17 18 18 18 19 20 20 19 17 19 27 28 28
16 16 16 16 14 12 13 15 19 20 17 15 18 19 15 14 15 16 16 17 17 16 16 15 14 14 14 13 12 11 11 11 11 11 11 11 11 11 11 10 11 11 11 12 13 14 15 16 17 17 17 17 17 17 17 17 17 17 18 19 20 19 19 18 18 19 19 19 18 18 18 18 18 19 18 18 18 18 18 18 15 14 19 23 25
15 15 16 16 15 14 15 17 19 18 16 17 20 19 16 16 17 17 17 17 18 18 16 15 13 13 13 12 12 12 11 11 11 11 11 11 11 11 11 11 11 11 11 12 12 13 14 15 16 16 16 16 17 17 18 18 18 18 19 20 20 20 19 19 19 19 20 20 19 19 19 19 19 20 20 19 19 18 17 18 16 15 16 18 21
15 15 15 16 16 16 15 16 17 15 16 19 20 18 17 17 17 18 17 18 19 18 17 15 13 11 10 11 12 12 12 11 11 11 11 12 11 11 11 11 11 12 12 12 13 13 13 14 15 15 15 15 16 17 18 18 18 19 19 19 20 20 20 19 19 20 20 20 20 20 20 19 20 21 20 19 19 18 17 17 18 17 17 17 18
16 15 16 16 17 17 16 16 15 16 17 19 19 19 18 17 17 18 18 19 19 19 18 16 13 10 9 10 11 12 12 11 11 11 12 12 12 12 11 12 12 12 13 13 13 13 13 13 14 14 14 15 15 16 16 17 17 18 19 19 20 20 20 20 20 20 20 20 20 19 19 20 20 21 20 20 19 18 18 18 18 18 18 18 18
17 16 16 16 16 17 17 16 17 18 19 19 19 20 19 19 19 18 19 19 19 20 20 19 16 12 10 10 10 12 12 12 11 11 11 11 12 12 12 12 13 13 13 13 14 14 14 13 13 14 14 14 14 15 15 16 17 18 18 19 20 20 21 21 21 21 20 20 20 19 19 19 20 20 21 20 20 20 19 19 19 18 18 18 18
17 17 16 16 15 15 15 16 18 19 20 20 21 21 21 20 20 20 21 20 20 22 24 24 20 15 11 10 10 11 12 12 12 11 11 11 11 12 12 12 13 13 14 14 14 14 14 14 14 14 14 14 15 15 15 16 17 18 18 19 20 20 21 21 21 20 20 20 19 19 19 19 19 20 21 21 21 21 21 20 19 19 18 17 17
16 16 15 14 13 12 13 15 17 19 21 21 21 21 21 20 20 20 22 23 23 24 25 26 24 19 14 11 11 11 12 13 13 12 12 12 13 13 13 13 12 13 13 14 14 14 14 15 14 14 15 15 15 15 16 16 17 18 18 19 20 20 20 20 20 20 20 19 19 19 19 19 20 21 22 22 22 22 21 21 20 19 17 16 16
18 16 15 12 10 9 11 13 15 17 18 19 19 20 20 20 20 20 21 23 24 22 22 24 25 22 18 14 12 12 12 13 14 14 14 14 15 15 15 14 13 13 13 13 14 14 14 15 15 15 15 15 15 15 16 16 17 17 18 19 19 19 20 20 20 19 19 19 19 19 18 19 20 21 22 22 22 22 22 22 22 21 19 19 18
18 15 14 11 7 7 9 11 13 14 16 17 17 18 20 20 21 21 21 22 20 19 20 23 25 25 22 18 15 13 13 14 15 16 16 16 17 17 16 15 14 13 13 13 13 13 14 14 14 15 15 15 15 15 15 16 17 17 18 18 19 19 19 19 19 19 19 18 18 18 18 18 19 20 21 22 23 23 23 23 23 23 22 22 21
18 14 14 13 11 10 11 12 13 14 15 17 17 18 19 19 20 21 22 22 21 20 21 23 25 26 25 22 18 16 15 16 16 16 17 18 18 18 17 16 15 14 13 13 13 13 13 14 14 14 14 15 15 15 15 16 16 17 17 17 18 18 18 18 18 18 17 17 17 17 17 18 19 19 20 21 22 22 22 22 22 23 24 24 23
17 12 11 13 14 13 12 13 14 15 15 16 17 18 18 18 18 17 19 21 23 24 25 28 28 28 29 26 21 18 17 17 17 17 18 18 19 19 18 17 16 15 14 13 12 12 13 13 14 14 14 15 15 15 16 16 16 16 17 17 17 17 17 17 17 16 16 16 16 16 16 17 18 19 19 20 21 21 21 21 22 23 24 24 24
16 12 11 13 15 14 14 14 16 17 18 18 18 19 19 18 19 18 19 21 24 26 28 31 32 32 30 27 22 19 18 18 18 18 19 19 19 19 18 18 17 16 15 13 13 12 12 13 13 13 14 14 14 15 15 15 15 16 16 16 16 16 16 16 16 15 15 14 14 14 15 16 16 17 18 19 19 20 20 20 21 22 22 23 23
16 14 15 15 17 18 18 16 16 17 19 20 20 20 19 20 22 23 22 23 26 27 27 30 33 32 28 25 22 21 20 20 20 20 20 20 19 19 19 19 18 17 16 14 13 12 12 13 13 13 13 13 13 14 14 14 14 14 15 15 15 15 15 15 15 15 14 14 13 13 14 14 15 16 17 18 18 18 18 19 20 20 21 21 22
18 18 17 17 19 21 20 17 17 18 19 21 22 22 21 22 22 23 23 26 29 28 24 26 29 31 28 25 24 23 22 21 22 22 22 21 20 19 19 19 18 18 17 15 14 13 13 13 13 13 13 13 13 13 13 13 13 13 13 13 13 13 14 14 14 14 13 13 13 12 13 13 14 15 16 16 16 16 17 17 18 18 19 19 19
21 21 19 19 21 22 20 18 18 19 20 22 23 23 22 21 20 20 21 25 29 28 25 25 27 29 28 25 23 23 22 22 22 23 23 21 20 19 19 19 18 17 17 16 16 15 14 14 14 14 14 14 14 14 14 14 14 14 13 12 12 12 12 12 12 13 13 12 12 12 12 12 13 14 15 15 14 14 14 15 16 16 16 16 17
22 22 21 21 23 22 21 21 22 22 23 23 22 22 21 20 19 19 21 22 25 27 28 29 27 27 25 24 23 22 22 21 21 23 22 20 18 18 19 19 18 17 16 16 17 16 16 16 15 15 15 15 15 15 15 15 15 15 15 14 13 12 12 11 11 11 11 12 11 11 11 12 12 13 13 14 13 13 13 13 14 15 15 14 14
22 23 23 24 25 24 24 25 24 24 24 23 23 22 22 21 21 20 22 22 22 24 27 25 23 25 25 24 22 21 20 20 20 21 21 19 18 17 18 20 19 17 16 16 16 17 17 17 17 16 16 16 15 15 15 15 15 15 15 15 14 13 12 11 11 11 11 11 11 11 11 11 11 12 13 13 13 13 13 13 14 14 14 14 13
24 25 26 27 26 25 25 24 23 23 23 23 23 22 22 21 21 20 21 21 21 23 25 23 23 25 26 21 18 19 20 21 21 20 18 17 18 17 17 18 20 20 18 17 16 17 17 17 17 17 17 17 16 15 15 14 14 14 15 15 15 14 14 13 12 11 11 11 11 11 11 11 11 11 12 13 13 13 13 13 13 14 14 14 14
26 26 27 26 25 23 22 21 20 20 20 21 21 22 22 22 22 21 21 21 20 21 23 23 21 21 20 18 17 19 21 22 21 20 18 18 19 18 18 18 19 21 21 19 18 17 17 17 17 17 17 17 17 17 16 15 15 14 14 15 15 14 14 14 14 13 13 13 13 13 12 12 12 12 12 13 13 14 14 14 14 14 15 15 15
24 24 24 24 24 22 21 19 18 18 20 21 21 22 23 23 24 24 23 21 20 20 21 22 21 20 21 23 22 20 20 20 20 18 18 19 19 19 20 20 20 21 22 22 21 18 17 17 17 17 17 17 18 18 17 16 16 16 15 15 15 15 15 15 15 15 15 15 15 15 15 15 14 14 14 14 14 15 15 15 16 16 16 16 17
21 19 20 22 23 22 20 19 19 20 21 22 23 23 23 23 24 25 25 23 22 21 20 21 22 23 24 24 23 22 20 20 20 20 19 19 18 19 21 23 22 23 23 23 22 21 20 19 19 19 19 19 19 18 18 18 17 17 18 17 17 16 16 16 16 16 16 16 16 16 16 16 16 16 16 16 16 16 17 17 18 18 18 18 19
21 18 19 21 22 22 21 21 21 23 24 25 25 24 24 24 24 25 26 26 25 24 22 22 23 23 23 23 23 22 20 18 20 23 22 23 25 26 26 24 24 25 24 23 24 23 23 23 23 22 23 23 22 20 19 19 19 19 20 20 19 18 18 18 18 18 18 18 17 17 16 16 17 17 18 18 18 18 18 18 19 19 20 20 21
23 23 23 23 25 25 25 25 25 26 26 26 26 26 26 26 27 27 28 28 28 28 26 25 25 25 24 24 24 23 21 19 21 23 24 27 30 29 27 25 24 25 25 24 24 25 26 26 26 26 26 26 25 23 21 21 21 20 21 21 21 20 20 20 20 20 20 20 19 18 18 17 17 17 17 18 19 19 19 19 20 20 21 22 22
27 27 27 27 28 30 30 29 29 29 29 28 28 29 29 29 29 29 29 30 30 30 30 29 28 27 26 26 25 25 25 24 24 26 28 30 31 28 26 25 23 23 25 25 26 27 28 27 25 24 26 27 27 25 23 24 24 23 23 23 24 23 23 22 22 22 22 22 22 21 20 19 18 18 18 18 19 19 19 20 20 21 21 22 22
29 29 28 27 29 31 31 30 30 31 31 30 30 30 31 31 31 31 31 31 30 30 31 31 30 29 28 28 27 28 28 28 29 30 30 31 31 30 28 27 25 24 27 28 26 25 26 26 24 23 25 27 28 25 23 24 25 24 24 24 24 25 26 26 25 24 23 23 23 23 22 22 21 20 20 20 20 20 21 21 22 22 23 23 24
28 30 29 27 27 29 30 30 31 31 31 31 32 33 33 33 33 33 34 34 33 33 33 33 33 32 32 32 31 31 32 32 32 33 33 32 33 33 31 30 29 28 29 29 26 25 24 24 24 24 24 25 26 24 24 26 26 24 24 24 23 24 25 26 26 25 25 24 24 24 24 24 24 24 23 23 23 23 23 24 24 24 25 26 26
28 29 28 27 28 28 29 29 29 30 31 33 34 35 35 35 36 36 36 36 36 36 35 35 35 35 34 34 34 34 34 34 34 34 35 35 35 35 35 34 33 32 31 30 29 28 27 27 27 27 26 25 25 24 25 27 27 26 26 26 26 24 24 25 25 25 24 24 24 24 24 25 25 25 26 26 26 26 26 26 27 27 28 28 29
29 28 27 28 29 30 30 31 32 33 34 35 36 36 36 36 36 36 37 37 38 38 37 37 36 36 36 36 36 37 37 37 37 36 37 37 38 38 38 38 37 35 34 34 33 32 33 32 32 32 31 31 31 30 30 31 30 29 28 29 28 27 26 28 29 29 28 27 26 26 26 26 26 26 27 27 27 27 28 29 30 31 32 32 33
34 33 33 35 37 38 38 38 38 38 37 36 36 35 35 36 37 38 38 39 39 39 38 37 37 37 38 37 37 37 38 38 39 40 40 40 41 41 41 41 40 39 39 38 37 37 37 37 37 36 36 36 36 37 37 37 35 33 32 32 32 32 33 35 36 35 33 31 30 30 31 32 32 32 31 31 31 31 32 33 33 35 36 36 36
36 37 38 40 41 42 42 41 41 40 39 38 37 36 37 38 40 41 42 41 40 39 38 37 38 38 38 38 38 37 37 38 39 41 42 43 43 44 44 44 43 43 42 42 42 41 42 41 41 41 40 40 39 40 39 39 39 38 37 36 37 38 39 40 39 39 38 36 35 36 37 38 38 38 38 38 38 37 37 37 37 39 40 40 40
39 40 42 43 43 44 45 46 47 45 43 42 42 43 44 44 43 42 42 41 40 40 40 40 40 40 39 39 39 38 38 38 38 39 40 41 42 42 43 44 44 44 44 43 43 43 44 44 44 43 43 42 42 42 42 42 42 41 40 40 40 41 42 42 42 42 42 42 41 41 41 41 42 42 43 43 42 42 41 41 41 43 44 44 44
43 44 47 47 46 46 46 48 49 48 47 47 47 46 46 46 45 44 42 42 42 43 43 44 43 43 42 41 40 40 40 40 39 39 39 39 40 41 42 43 43 44 44 44 43 43 43 43 43 44 43 43 43 43 44 44 44 44 43 43 43 43 43 43 44 44 44 45 45 44 44 44 45 46 46 45 45 44 43 43 44 46 47 46 47
47 48 49 48 46 45 45 45 45 44 46 48 48 47 46 45 45 45 45 45 46 47 46 46 45 45 44 43 43 42 42 42 42 42 42 42 42 42 43 43 44 44 44 44 44 43 43 42 43 43 43 43 43 44 44 45 45 46 46 46 45 44 43 44 44 45 45 45 46 46 47 47 48 48 48 47 46 45 45 45 45 46 48 48 49
50 50 49 47 46 45 47 47 47 46 48 49 50 49 48 47 46 46 47 48 49 49 49 48 48 47 47 46 45 45 44 44 44 44 44 44 44 44 45 45 45 45 45 45 45 44 44 43 43 43 43 44 44 45 44 45 45 45 46 46 45 44 44 43 44 44 44 45 45 46 47 47 47 47 45 45 44 44 44 44 44 45 47 48 49
48 48 46 44 43 42 44 46 47 48 49 49 47 44 43 44 45 46 48 49 50 51 52 51 51 50 49 49 48 47 47 46 45 45 45 45 46 47 48 48 47 48 48 48 48 48 47 45 44 44 43 43 44 44 45 45 45 45 45 45 45 44 44 44 43 43 43 44 44 45 45 45 45 44 43 43 43 43 44 44 45 47 48 49 49
44 45 45 44 42 40 40 43 43 43 43 44 43 42 42 44 47 48 50 52 53 54 54 53 52 51 50 50 50 49 49 48 47 47 47 48 50 51 50 50 50 50 51 50 50 49 48 47 46 45 45 44 44 45 45 45 45 45 45 45 45 45 45 44 44 43 43 43 43 44 44 44 44 44 44 44 44 45 46 47 49 49 49 49 50
43 44 45 47 47 45 45 46 46 44 44 46 48 49 50 50 50 50 51 52 54 55 54 53 52 51 51 51 51 51 51 50 50 49 50 51 52 52 51 51 51 51 51 50 49 48 48 47 47 47 46 46 46 46 46 46 45 45 45 45 45 45 45 45 45 44 43 43 44 44 44 45 46 46 46 46 47 47 48 49 50 49 49 49 50
45 45 46 48 49 49 49 50 49 48 47 48 49 51 52 50 49 50 49 48 48 50 51 51 51 52 52 53 53 53 52 52 52 52 52 52 52 51 50 50 51 50 49 49 48 48 48 48 48 48 47 47 47 47 47 47 46 46 46 46 45 45 45 45 44 44 43 44 44 45 45 46 46 47 47 48 48 49 49 49 49 48 49 49 50
47 48 48 49 49 50 52 53 53 53 52 51 51 51 52 50 48 49 49 48 48 50 53 54 54 54 54 54 53 53 53 53 54 54 54 53 52 51 50 50 49 49 49 48 48 47 47 48 48 48 48 47 46 46 46 46 46 46 46 46 45 45 45 45 45 44 44 44 44 45 45 46 46 47 48 48 49 49 48 48 48 48 49 49 50
48 49 49 49 49 51 53 54 54 55 55 55 56 57 57 56 55 55 55 56 57 58 58 58 57 56 54 54 53 53 53 53 53 52 52 51 50 49 48 48 48 48 48 47 46 46 46 46 46 46 46 45 45 45 44 44 44 43 43 43 44 44 44 44 44 43 43 43 44 45 46 46 47 47 47 47 47 47 47 47 47 48 49 49 50
47 48 48 48 49 50 51 52 53 53 54 55 56 58 59 59 60 60 61 61 62 61 59 58 56 55 54 53 52 52 52 52 51 51 50 49 48 47 46 46 46 47 47 46 46 45 45 45 44 44 44 44 44 43 43 43 42 42 41 41 40 41 41 42 42 42 43 43 44 45 46 46 46 46 46 45 45 46 46 47 48 48 49 50 50
47 48 49 49 50 50 51 51 51 52 53 54 55 56 57 58 58 59 59 59 59 58 57 56 55 54 53 53 52 52 52 52 51 50 49 48 47 47 46 46 46 46 46 46 45 45 45 44 44 44 44 43 43 42 42 42 42 41 40 39 38 38 39 39 40 41 42 43 43 44 44 45 45 45 45 45 46 46 47 47 48 49 49 49 50
48 48 49 50 51 51 51 52 52 53 53 54 55 56 57 57 57 57 57 57 58 57 56 55 55 55 54 54 53 53 53 52 51 50 49 48 47 47 46 46 46 46 46 45 45 45 45 45 45 45 44 44 43 43 43 42 42 41 40 39 38 38 38 39 39 40 40 41 42 42 43 44 44 45 45 45 46 46 46 47 47 48 48 48 48
52 52 52 52 53 53 53 53 54 54 55 56 57 57 57 57 57 56 56 57 57 56 54 53 53 53 54 54 53 53 52 52 51 50 49 49 48 48 47 47 47 46 46 45 45 44 44 45 45 45 45 44 44 43 43 43 42 42 41 40 40 39 39 39 38 38 38 39 40 41 42 43 43 43 44 44 44 45 45 45 45 45 45 45 45
55 55 55 55 55 54 54 54 55 55 56 57 58 58 58 58 57 57 56 56 55 54 52 51 50 52 53 53 53 52 52 52 51 51 50 49 48 48 48 47 46 45 45 45 45 44 44 44 44 44 44 44 44 44 44 43 43 42 41 41 41 40 39 38 37 37 37 37 38 38 39 40 40 40 41 41 41 41 41 42 42 42 42 42 43
58 58 58 58 58 57 57 56 56 56 56 56 57 58 58 58 57 56 56 55 55 53 51 50 49 51 52 53 53 53 53 53 52 51 50 49 47 47 47 46 45 44 44 44 44 44 44 45 45 44 44 43 43 43 43 43 43 42 41 41 40 39 38 37 37 36 36 36 36 36 36 36 36 36 36 37 37 38 38 39 39 40 40 39 38
59 59 59 59 59 59 59 58 58 57 57 57 56 57 57 57 56 55 54 54 53 52 51 50 50 51 51 52 52 53 53 53 52 51 50 48 47 45 45 44 44 44 44 44 44 44 44 45 44 43 43 43 43 43 43 43 42 40 39 39 38 37 37 36 35 35 35 35 34 34 33 33 33 34 34 35 35 36 36 36 36 34 32 31 30
58 58 58 58 58 58 58 58 58 57 57 57 56 56 55 55 55 54 53 53 52 52 51 51 51 50 50 50 51 51 52 51 51 50 49 47 46 45 44 43 43 43 44 44 44 44 44 44 43 42 42 42 42 42 42 41 39 38 37 37 36 36 35 35 34 35 35 34 33 33 33 33 33 33 34 34 34 33 32 30 27 25 24 25 27
56 56 56 56 56 56 56 55 55 55 55 55 55 55 55 54 54 53 53 52 51 51 52 52 51 50 49 49 48 48 48 48 48 47 47 46 45 44 44 43 43 42 43 43 44 44 44 43 42 42 41 41 41 41 40 39 37 37 37 37 36 36 35 35 35 35 35 34 34 34 34 33 33 33 33 31 29 27 24 21 20 21 23 26 29
56 56 56 56 56 55 55 54 54 54 53 53 52 53 53 53 53 53 53 52 50 50 50 51 51 50 49 48 48 47 46 46 46 46 45 44 44 43 43 43 42 41 41 42 43 43 43 42 42 42 41 41 41 40 40 39 38 37 37 37 36 35 35 35 35 35 35 34 34 34 33 32 32 30 28 25 22 20 18 17 19 22 25 28 31
Wind_Direction
250 254 263 270 274 274 256 225 216 231 270 285 288 290 290 291 285 284 288 289 287 282 276 274 276 281 285 290 295 298 299 298 298 297 293 286 279 273 269 265 262 260 257 254 252 252 254 255 255 254 254 255 257 258 258 257 256 255 256 258 258 256 253 252 253 252 252 252 253 254 254 255 258 258 258 258 257 258 256 263 272 250 235 236 237
253 256 262 268 267 258 254 246 242 260 287 294 288 288 290 289 286 285 286 286 284 281 278 278 281 285 288 293 297 300 299 299 299 297 294 289 282 276 270 266 263 262 261 259 256 255 255 257 257 256 255 255 256 256 256 255 253 252 253 255 257 257 255 253 252 252 253 253 252 252 252 254 258 259 261 262 262 263 261 261 266 253 238 238 240
258 257 258 262 262 255 254 257 260 272 284 284 285 288 289 288 286 283 283 285 285 284 281 281 284 288 293 299 303 304 303 302 300 296 293 289 284 279 273 270 267 264 263 262 261 260 259 259 259 259 259 257 256 254 253 252 251 250 250 252 254 256 257 256 255 255 256 256 253 251 252 255 257 260 261 262 264 263 260 259 257 251 243 242 244
264 258 255 254 255 255 256 259 262 266 270 273 279 284 285 285 283 281 282 284 285 284 282 281 284 288 294 299 302 305 305 303 300 298 296 293 289 284 278 273 269 266 265 264 263 262 261 260 260 259 258 257 256 254 254 253 253 253 252 252 253 255 257 258 257 256 256 256 254 251 252 253 255 257 258 259 261 259 256 256 255 252 248 244 244
269 260 255 252 250 252 255 259 260 260 262 267 274 278 279 279 277 278 280 281 282 282 281 280 278 279 283 289 297 304 305 302 299 298 298 298 295 290 284 278 273 270 268 266 266 264 262 260 259 259 258 257 257 256 256 255 254 254 254 254 255 256 257 257 256 255 255 255 254 252 249 249 250 253 255 255 256 255 253 254 256 256 253 248 246
266 258 255 253 251 253 256 257 258 259 261 266 271 274 274 274 274 274 274 275 276 279 283 283 276 270 272 281 293 303 305 303 299 296 295 295 296 294 289 283 279 275 272 270 268 266 264 261 259 259 258 256 256 256 255 255 254 254 255 256 257 258 258 258 257 257 256 256 254 251 247 246 248 250 252 252 252 253 254 254 254 255 255 252 248
259 256 256 256 257 260 259 257 257 258 260 264 268 271 272 272 272 271 269 267 267 273 281 282 276 267 266 275 290 300 305 304 299 296 295 295 297 296 292 287 282 277 275 273 271 268 266 262 259 257 255 254 254 254 254 254 254 254 255 256 256 257 258 259 259 259 258 257 255 252 248 245 245 247 249 250 252 254 255 253 252 252 255 255 251
263 264 264 266 269 269 261 255 254 255 258 261 264 268 269 269 271 271 269 266 266 269 275 278 277 272 268 274 286 298 304 304 303 303 302 300 299 297 294 289 284 278 275 273 271 269 267 264 260 257 255 254 253 254 254 254 254 254 254 254 254 255 257 258 259 260 259 259 257 254 250 247 245 245 246 249 251 253 254 254 253 252 252 253 256
273 275 276 277 272 265 257 252 250 251 255 259 264 267 269 270 272 271 269 267 266 268 271 275 277 277 275 277 284 294 300 302 304 307 307 304 300 297 293 289 285 280 276 274 272 270 268 266 263 261 257 255 254 253 253 253 253 254 254 254 254 254 255 256 257 258 258 258 258 257 254 251 249 247 248 250 251 253 253 254 254 254 250 248 251
278 282 283 282 275 264 259 256 254 252 254 260 264 267 268 270 271 270 267 262 262 265 269 275 280 281 280 280 284 290 294 298 303 307 307 304 299 295 291 287 284 280 276 274 273 272 270 268 266 263 261 258 257 254 253 252 252 253 253 253 253 253 253 254 255 256 257 257 258 257 255 253 251 250 250 251 252 252 253 253 253 253 251 248 248
279 283 281 278 276 267 259 258 260 261 262 263 265 266 267 267 267 267 264 259 259 263 268 274 281 284 284 283 285 287 290 295 299 303 304 301 297 293 289 287 284 281 278 275 275 275 273 271 268 265 263 260 258 256 254 252 251 251 251 250 250 250 251 251 252 253 254 255 256 256 255 254 252 251 251 251 252 253 255 255 254 255 254 253 251
274 276 272 268 267 264 259 260 263 266 267 267 265 263 262 260 258 263 266 264 264 268 273 277 280 284 286 285 285 286 288 292 295 297 300 299 294 290 288 286 284 281 279 277 276 277 276 274 272 269 266 263 259 256 254 252 250 249 249 249 249 248 249 250 251 252 252 253 254 254 254 254 253 254 254 254 255 256 257 257 255 255 256 256 254
266 262 256 254 258 263 265 266 267 267 267 267 264 261 258 255 254 262 270 271 272 276 281 282 279 279 283 283 285 290 291 290 291 291 293 292 287 284 283 283 283 281 280 279 278 279 279 278 277 274 271 268 264 260 257 254 252 249 249 249 250 250 250 252 253 254 254 254 253 252 252 252 252 253 255 256 256 256 256 256 255 254 255 256 255
262 258 254 252 258 265 267 268 269 267 266 266 264 263 262 258 258 264 268 272 272 274 280 284 278 273 277 284 288 293 293 290 289 286 286 284 278 277 277 278 280 280 278 278 278 281 282 281 280 279 277 274 271 267 264 261 257 254 252 250 250 250 251 252 254 257 257 257 257 254 252 250 250 251 253 254 254 254 253 253 253 253 253 254 256
258 255 254 254 256 263 267 269 271 269 269 269 268 269 267 264 264 266 270 272 268 266 274 284 279 270 275 289 291 290 291 288 286 284 281 278 273 273 276 277 279 278 275 275 275 277 279 281 282 282 281 281 279 277 274 271 268 265 261 257 255 253 252 252 252 254 255 256 257 257 255 254 253 253 254 255 255 254 253 252 252 252 252 253 255
258 256 257 257 255 260 266 268 270 272 272 271 271 272 271 270 270 267 271 274 269 269 276 284 280 269 273 288 290 288 288 285 283 282 276 272 270 271 275 278 280 279 275 274 274 274 276 278 279 280 281 281 282 282 281 280 278 276 274 270 267 264 261 259 256 255 255 253 251 251 252 253 253 255 258 261 261 258 255 254 254 254 253 253 254
260 260 260 259 259 262 266 267 268 271 272 272 271 273 274 275 274 269 270 273 271 276 284 286 275 263 270 286 288 287 289 285 282 280 272 265 264 269 275 279 281 281 278 276 274 274 274 275 277 277 278 277 278 280 281 282 282 282 281 279 276 273 269 267 266 264 263 260 257 254 251 249 248 250 253 256 258 256 253 252 252 253 252 251 252
259 261 261 260 261 264 267 268 269 269 270 270 271 273 274 273 274 271 270 273 273 277 283 284 271 264 272 283 283 283 287 286 281 276 268 259 258 266 274 279 283 282 280 277 275 274 272 272 273 275 276 275 275 276 278 280 281 282 282 281 279 276 272 269 266 266 266 266 265 262 258 254 251 250 249 251 253 252 250 247 246 248 248 247 246
257 260 261 260 260 261 264 266 269 268 266 266 268 270 272 272 275 275 274 276 276 275 277 279 280 278 276 278 281 283 287 288 280 272 265 255 253 260 268 275 281 283 283 279 275 275 274 272 271 271 273 274 274 273 274 275 276 277 276 275 275 273 270 267 263 261 261 261 262 263 261 258 256 255 255 254 255 256 255 251 248 248 248 247 246
254 255 257 259 259 260 259 259 261 264 265 267 269 271 273 276 277 277 277 277 277 277 276 277 281 281 278 284 292 289 289 291 281 270 265 256 251 256 261 267 274 279 282 280 276 275 277 277 276 275 276 277 277 276 274 273 273 273 273 272 270 269 267 265 262 259 257 255 255 256 256 256 254 254 255 256 257 258 259 259 256 254 253 251 250
249 251 254 260 262 261 257 255 256 260 264 268 271 273 275 278 280 281 283 283 281 280 279 277 276 276 280 289 294 290 289 289 279 265 256 249 248 254 258 261 267 272 275 277 276 276 277 280 282 284 283 281 279 277 274 272 270 268 268 268 268 267 265 263 261 259 257 255 254 253 253 253 252 251 251 251 253 255 257 259 259 259 258 256 256
239 248 256 261 261 257 255 256 260 265 268 269 271 273 275 278 282 284 286 287 287 283 280 278 277 277 280 285 290 290 285 280 273 262 250 247 254 261 260 257 260 265 269 273 276 278 277 278 280 283 284 282 280 278 274 272 269 266 264 263 263 265 265 265 264 262 260 257 257 257 256 256 255 254 252 251 250 251 251 253 255 257 258 258 258
233 246 258 260 256 252 252 260 268 272 274 274 274 275 277 280 281 283 285 286 285 284 282 280 280 281 282 284 288 289 284 276 270 266 263 265 268 267 263 258 256 259 264 269 275 278 279 280 280 280 282 282 280 278 274 271 268 267 266 264 262 263 265 267 268 268 268 266 263 261 259 259 258 257 256 256 255 254 253 253 254 254 255 257 258
243 249 258 259 255 250 252 261 271 277 277 277 277 278 279 281 282 283 284 284 285 286 286 285 285 287 287 286 286 284 283 280 275 272 272 274 274 266 258 259 259 256 258 264 268 272 276 281 282 280 281 281 278 275 272 269 267 266 266 267 267 264 264 267 270 272 273 273 271 268 264 260 258 256 256 256 256 257 258 258 258 257 257 257 258
257 258 258 256 252 249 252 260 270 276 277 277 278 279 280 282 283 284 284 286 288 290 289 289 290 292 290 288 285 281 279 277 274 273 274 276 280 274 264 268 270 262 260 263 263 265 269 275 280 281 280 280 277 274 273 272 272 268 266 267 269 269 268 268 270 271 271 273 273 272 269 266 262 259 257 257 256 257 258 259 261 263 264 264 264
262 264 260 253 247 246 252 262 270 275 276 277 279 281 283 284 285 286 286 288 289 290 290 290 290 290 287 284 282 279 277 275 273 274 274 275 279 280 278 278 275 269 266 265 264 265 268 272 277 282 283 279 273 272 274 275 275 274 271 271 272 273 273 273 272 271 270 270 271 270 270 268 266 264 261 260 260 260 260 261 263 266 268 269 269
262 263 257 247 243 247 254 263 270 273 274 277 280 283 284 285 285 286 287 289 289 289 290 288 286 287 286 283 281 279 277 276 274 275 277 276 274 276 279 278 274 273 273 268 267 269 271 273 275 279 284 278 268 268 272 273 272 272 275 277 278 279 278 277 276 274 272 269 266 266 266 266 266 265 264 264 263 264 264 264 265 266 268 269 270
263 261 252 244 246 252 257 262 268 271 275 278 281 282 282 282 283 285 286 287 287 287 286 285 284 285 285 283 282 279 276 275 274 275 277 278 276 275 277 278 277 278 277 275 274 274 275 276 276 277 278 273 267 266 269 269 269 269 272 274 275 277 278 277 276 277 276 272 268 266 267 267 266 265 265 266 267 268 269 269 268 268 267 267 268
264 257 248 247 252 257 262 266 269 271 274 275 276 276 278 280 282 283 284 284 284 283 283 282 283 283 284 284 283 281 279 278 277 276 275 276 276 276 277 279 279 279 280 280 280 278 278 278 278 277 276 274 272 271 271 271 273 274 274 272 269 269 273 276 277 276 275 274 273 271 271 272 271 270 269 269 270 272 273 274 274 273 271 269 268
265 259 254 254 257 262 267 269 270 270 271 270 268 269 273 277 280 281 281 280 280 279 279 280 281 283 284 284 283 281 280 279 278 277 276 276 276 277 278 279 280 280 281 281 281 281 280 279 278 277 276 276 275 275 275 275 275 275 273 271 267 265 270 275 276 274 272 271 271 270 271 273 273 272 271 271 272 273 275 276 275 275 273 273 272
265 262 262 263 264 266 269 271 272 274 274 271 268 269 273 277 279 279 278 279 278 276 275 276 278 280 281 281 281 281 280 279 278 278 277 276 277 277 278 279 280 280 280 280 280 280 280 279 278 277 276 276 276 275 275 275 274 273 272 270 268 267 269 272 272 270 269 269 268 269 270 271 271 271 272 273 275 276 276 276 275 274 273 273 273
263 263 265 267 269 271 272 275 277 278 277 275 274 274 275 277 278 276 275 276 275 274 273 274 275 277 277 277 277 277 277 279 279 279 278 277 277 277 278 278 278 278 277 277 276 276 276 275 275 275 275 275 274 273 272 272 272 272 271 270 269 268 268 269 269 269 268 267 268 268 269 269 270 271 273 275 276 277 277 276 275 274 274 273 273
266 266 267 268 271 273 273 273 274 274 274 274 273 273 274 274 274 273 272 271 271 271 272 274 276 277 276 275 275 275 275 276 277 276 276 277 278 279 279 279 278 277 277 276 275 274 273 272 272 272 272 271 270 270 270 271 271 271 270 269 268 268 268 268 268 268 268 267 267 268 267 268 269 270 272 274 275 275 274 273 273 273 273 274 273
269 270 271 272 273 272 270 269 270 270 270 269 269 269 269 270 269 268 268 268 269 270 272 273 275 275 275 275 275 275 275 275 275 274 274 275 276 278 278 278 277 277 277 277 277 277 276 275 274 273 272 271 269 268 268 269 269 269 270 269 269 268 267 267 267 268 268 267 267 267 267 268 268 270 271 273 273 272 271 271 272 272 273 273 273
271 271 272 273 272 270 269 269 269 269 270 270 270 269 266 265 265 264 264 265 268 270 271 272 273 272 272 273 273 273 274 274 274 274 273 273 274 276 278 277 276 275 275 275 276 276 276 276 275 275 274 274 273 273 272 271 270 270 269 269 269 268 267 266 266 267 267 267 267 267 268 268 269 270 270 270 270 270 271 273 273 273 273 273 273
269 269 268 267 269 270 270 269 268 269 270 269 269 267 263 263 263 262 263 265 267 268 269 269 270 270 271 272 273 273 273 273 273 273 272 271 273 276 277 275 274 274 274 274 274 274 274 273 273 273 273 273 274 275 275 275 275 274 273 273 272 271 269 268 267 266 266 266 267 267 267 268 269 270 269 269 269 271 272 273 274 274 274 274 274
264 265 264 262 262 263 265 266 266 267 268 266 264 261 261 262 263 262 263 265 265 266 266 267 267 268 268 269 271 272 273 272 272 271 271 272 274 276 275 273 272 273 274 274 274 274 273 272 271 271 271 271 272 272 273 274 275 275 276 275 275 274 273 272 271 270 269 268 267 266 267 268 269 269 270 271 271 272 272 273 274 275 276 275 274
261 261 261 260 258 257 257 260 262 264 265 265 264 263 262 263 264 262 261 262 263 264 265 266 266 266 266 267 268 270 270 270 270 269 269 271 273 274 273 272 272 273 274 274 274 273 273 272 271 271 270 270 270 271 272 272 273 274 274 275 275 274 274 273 273 272 270 269 267 267 267 268 269 270 271 271 272 272 273 274 275 275 275 274 272
260 259 258 258 259 259 258 258 259 260 261 261 263 264 264 263 263 261 259 259 260 262 264 266 267 267 267 267 268 268 268 268 268 268 268 269 270 269 268 269 270 271 272 272 272 272 272 272 272 272 271 271 270 270 270 270 271 271 272 273 273 273 273 273 273 273 272 271 270 269 269 269 269 270 270 271 272 273 274 275 274 274 273 272 272
262 260 257 256 256 256 257 257 257 257 256 256 257 259 260 260 260 259 259 258 259 263 266 268 268 268 268 269 269 269 268 268 268 268 268 268 268 267 266 266 267 268 269 270 270 271 271 271 272 272 272 272 272 272 271 271 270 270 270 271 271 272 272 273 273 273 273 272 272 272 271 271 270 270 271 272 273 274 274 274 273 273 272 273 273
263 262 261 259 257 256 256 258 258 258 257 256 255 256 257 258 258 258 259 261 262 265 267 268 268 268 268 268 269 268 268 268 267 267 267 267 267 267 267 267 267 267 267 268 268 268 269 269 270 271 272 272 272 273 273 273 272 272 271 271 271 271 271 271 272 272 272 271 271 271 271 270 270 271 271 272 273 273 273 273 272 273 273 273 273
262 262 261 261 260 258 258 259 259 259 259 258 257 257 258 258 258 259 261 262 264 265 266 266 267 267 268 268 268 268 267 266 266 266 266 267 267 267 267 267 268 268 268 267 267 267 267 267 268 269 269 270 271 272 272 273 274 274 274 273 273 271 270 270 270 269 269 268 268 268 269 270 271 271 272 272 272 272 272 272 273 273 274 274 274
262 262 261 261 261 260 260 259 259 259 259 259 259 258 258 258 259 260 261 262 263 264 264 265 266 267 267 267 267 266 266 266 266 266 266 266 267 267 267 267 266 266 266 266 266 266 267 267 267 268 268 268 269 270 271 272 272 273 274 274 274 273 272 270 269 268 268 268 268 268 269 270 271 271 272 272 272 273 273 274 274 275 275 276 276
262 263 263 263 263 262 262 262 261 261 261 261 260 260 259 259 259 259 260 261 261 262 263 264 264 265 265 265 265 265 265 266 266 266 266 266 267 268 267 267 266 265 265 264 265 265 266 266 267 267 268 268 268 269 269 270 270 271 271 271 271 271 271 270 270 270 270 270 270 270 270 270 271 272 272 273 273 274 274 275 275 275 276 276 276
265 265 265 265 265 264 264 264 263 263 263 263 263 262 262 262 261 260 260 260 260 261 261 263 264 264 264 264 264 265 265 266 266 266 266 266 267 267 267 267 267 267 266 265 265 265 265 265 265 266 266 267 267 268 268 269 269 269 269 269 269 269 269 270 271 272 272 271 271 271 271 272 272 273 273 274 274 274 274 274 274 275 275 276 276
267 267 267 267 266 265 264 264 264 263 263 263 263 263 263 263 262 262 262 261 261 260 259 260 262 263 263 263 264 264 264 264 264 263 264 264 264 265 266 267 267 267 266 266 266 265 264 264 264 264 265 265 266 266 267 267 267 267 267 267 267 267 268 269 270 271 271 272 272 272 273 273 273 274 274 274 274 274 274 274 275 275 275 276 277
266 266 267 267 266 266 265 264 264 263 263 263 263 263 263 263 263 263 263 263 263 261 260 259 258 259 260 262 263 263 263 263 263 263 263 263 263 264 265 265 265 265 264 264 264 264 264 264 264 264 265 265 265 265 266 266 266 266 266 266 266 266 266 267 268 269 271 272 272 273 273 274 274 275 274 274 275 275 275 275 275 276 276 277 277
266 266 265 265 265 265 265 264 264 263 263 262 262 262 263 263 263 263 263 263 264 264 262 259 257 256 256 258 259 261 262 263 264 264 265 265 265 265 264 264 263 263 262 262 262 262 263 263 264 264 265 264 264 264 264 264 264 265 265 265 265 265 265 266 267 268 269 270 272 274 275 276 276 276 276 277 277 278 278 278 277 277 277 275 275
265 265 265 264 264 263 263 263 263 262 262 262 262 261 261 262 262 262 262 262 263 263 263 261 259 258 256 256 257 258 260 262 264 265 266 266 266 265 264 263 263 262 262 261 261 261 262 262 263 263 263 263 263 263 263 263 263 263 264 264 264 265 265 266 266 267 269 271 273 275 277 277 278 279 279 280 281 280 279 277 275 273 272 273 275
266 265 264 264 264 263 262 261 261 261 261 261 261 261 262 262 262 262 261 261 261 261 262 262 261 260 259 258 258 258 259 260 262 262 263 264 264 264 264 263 263 262 261 261 261 261 261 262 262 262 262 262 262 263 263 262 262 263 264 264 264 264 265 265 266 268 270 273 275 276 277 278 280 281 281 282 281 278 273 270 269 271 275 278 281
267 265 265 264 264 263 263 262 261 261 260 260 260 260 260 260 261 261 261 260 260 259 259 260 261 261 261 261 261 261 260 261 261 261 262 262 262 262 262 262 261 260 260 259 259 259 260 260 261 261 261 262 262 263 263 263 263 263 263 263 264 264 265 266 268 270 272 273 274 276 277 278 279 280 280 278 273 267 264 268 275 281 283 285 287
Height
5768 5768 5768 5768 5768 5768 5768 5769 5770 5770 5772 5774 5774 5775 5775 5776 5777 5778 5779 5780 5781 5781 5781 5781 5780 5780 5779 5779 5778 5779 5778 5778 5777 5777 5777 5778 5778 5778 5779 5779 5779 5779 5780 5780 5780 5780 5780 5780 5781 5781 5782 5782 5782 5783 5783 5783 5783 5784 5783 5783 5783 5784 5785 5785 5786 5786 5786 5786 5786 5786 5786 5787 5787 5787 5787 5788 5788 5789 5789 5789 5788 5787 5788 5791 5792
5767 5766 5766 5766 5767 5767 5768 5768 5768 5768 5770 5772 5773 5774 5773 5774 5775 5776 5777 5778 5778 5779 5779 5778 5777 5777 5777 5777 5777 5777 5777 5776 5776 5776 5776 5776 5776 5776 5776 5776 5776 5777 5777 5777 5778 5778 5778 5778 5778 5779 5779 5780 5780 5780 5780 5781 5781 5781 5781 5780 5780 5781 5782 5782 5783 5783 5783 5784 5784 5784 5784 5784 5784 5784 5784 5785 5785 5785 5786 5786 5786 5786 5787 5788 5789
5766 5765 5765 5765 5765 5766 5767 5767 5767 5767 5769 5771 5772 5772 5772 5772 5773 5774 5775 5776 5776 5776 5776 5775 5775 5774 5774 5775 5775 5775 5774 5774 5774 5774 5774 5774 5774 5773 5773 5773 5774 5774 5775 5775 5775 5776 5776 5776 5776 5776 5777 5777 5778 5778 5778 5778 5778 5778 5778 5778 5778 5778 5778 5779 5780 5780 5780 5781 5781 5781 5781 5781 5781 5781 5781 5782 5782 5783 5783 5783 5784 5785 5785 5786 5786
5765 5764 5764 5764 5764 5764 5765 5765 5765 5766 5768 5770 5770 5770 5770 5770 5771 5772 5773 5773 5773 5774 5773 5773 5773 5773 5773 5773 5773 5772 5772 5772 5772 5772 5772 5772 5771 5771 5771 5771 5771 5771 5772 5772 5773 5774 5774 5774 5774 5774 5774 5774 5775 5775 5775 5775 5775 5776 5776 5776 5776 5776 5776 5777 5777 5777 5777 5778 5778 5778 5779 5778 5778 5778 5779 5779 5779 5780 5781 5781 5782 5782 5783 5784 5784
5762 5762 5762 5763 5763 5763 5763 5763 5763 5765 5767 5768 5768 5768 5768 5768 5769 5770 5770 5771 5771 5771 5771 5771 5771 5771 5771 5771 5771 5770 5770 5769 5769 5769 5769 5769 5769 5768 5768 5768 5768 5769 5769 5769 5770 5770 5771 5771 5771 5771 5772 5772 5772 5772 5772 5772 5773 5773 5773 5773 5773 5774 5774 5774 5774 5774 5775 5775 5775 5775 5776 5776 5776 5776 5776 5776 5776 5777 5778 5779 5779 5780 5780 5781 5781
5760 5759 5760 5760 5761 5761 5761 5762 5762 5763 5764 5765 5765 5765 5765 5766 5767 5767 5768 5768 5769 5769 5769 5769 5769 5769 5769 5768 5768 5768 5767 5767 5767 5767 5767 5767 5767 5766 5766 5766 5766 5766 5766 5766 5767 5767 5768 5768 5768 5768 5769 5769 5769 5769 5770 5770 5770 5770 5770 5770 5771 5771 5771 5771 5771 5771 5772 5772 5772 5772 5773 5773 5773 5773 5773 5773 5773 5774 5775 5776 5777 5777 5777 5777 5778
5757 5757 5757 5758 5759 5760 5760 5761 5762 5762 5762 5763 5763 5763 5763 5763 5764 5764 5765 5765 5766 5766 5767 5767 5767 5767 5766 5766 5765 5765 5765 5764 5764 5765 5765 5765 5765 5764 5764 5764 5764 5764 5764 5764 5764 5765 5765 5765 5766 5766 5766 5767 5767 5767 5767 5767 5767 5767 5768 5768 5768 5768 5767 5767 5768 5768 5768 5769 5769 5769 5770 5770 5770 5770 5770 5770 5770 5770 5772 5773 5774 5774 5774 5774 5775
5755 5756 5756 5757 5758 5759 5760 5761 5761 5762 5761 5761 5761 5761 5761 5761 5761 5762 5762 5762 5763 5764 5764 5765 5765 5765 5764 5763 5763 5763 5762 5762 5762 5762 5762 5762 5762 5762 5762 5762 5762 5762 5762 5762 5762 5763 5763 5763 5763 5764 5764 5764 5764 5764 5765 5765 5765 5765 5765 5765 5765 5765 5765 5764 5764 5765 5765 5765 5766 5766 5767 5767 5767 5767 5767 5767 5767 5768 5768 5769 5771 5771 5772 5772 5772
5753 5754 5755 5755 5757 5758 5759 5760 5760 5760 5760 5760 5760 5759 5758 5759 5759 5760 5760 5760 5760 5761 5761 5762 5763 5763 5762 5761 5761 5760 5760 5760 5760 5760 5760 5760 5760 5760 5760 5759 5759 5759 5760 5760 5760 5760 5760 5761 5761 5761 5761 5762 5762 5762 5762 5762 5762 5762 5762 5762 5762 5762 5762 5762 5762 5762 5762 5762 5762 5763 5764 5764 5765 5765 5764 5764 5765 5765 5766 5766 5767 5768 5769 5769 5769
5751 5752 5752 5753 5754 5755 5756 5757 5758 5758 5758 5758 5758 5757 5756 5756 5757 5757 5757 5757 5757 5758 5758 5759 5759 5759 5759 5759 5758 5758 5758 5758 5758 5758 5758 5758 5758 5758 5758 5757 5757 5757 5757 5757 5758 5758 5758 5758 5759 5759 5759 5759 5759 5759 5759 5759 5759 5759 5759 5759 5759 5759 5759 5759 5759 5759 5759 5759 5760 5760 5761 5761 5762 5762 5762 5762 5762 5763 5763 5763 5764 5764 5765 5766 5766
5750 5751 5750 5751 5751 5752 5753 5754 5754 5755 5755 5756 5756 5756 5755 5755 5755 5755 5755 5755 5755 5755 5755 5756 5756 5756 5756 5757 5757 5757 5757 5757 5757 5757 5757 5757 5756 5756 5756 5755 5755 5755 5755 5755 5755 5755 5756 5756 5756 5757 5757 5757 5757 5757 5757 5757 5757 5757 5757 5757 5757 5756 5756 5756 5756 5756 5756 5757 5757 5757 5758 5758 5759 5759 5759 5760 5760 5760 5761 5761 5761 5761 5761 5762 5763
5749 5749 5749 5749 5749 5749 5750 5751 5751 5752 5752 5752 5753 5753 5753 5753 5752 5752 5752 5753 5753 5753 5752 5753 5754 5754 5754 5755 5755 5756 5755 5755 5755 5755 5755 5755 5755 5754 5754 5754 5753 5753 5753 5753 5753 5753 5753 5754 5754 5754 5755 5755 5755 5755 5755 5755 5755 5755 5754 5754 5755 5754 5754 5754 5754 5754 5754 5754 5755 5755 5755 5756 5756 5757 5757 5758 5758 5758 5758 5758 5758 5759 5759 5759 5760
5747 5747 5747 5747 5747 5747 5747 5748 5748 5748 5748 5749 5749 5750 5751 5751 5751 5750 5751 5751 5751 5751 5750 5750 5750 5752 5752 5752 5753 5754 5754 5754 5754 5753 5753 5753 5753 5752 5752 5752 5751 5751 5751 5751 5751 5751 5751 5751 5752 5752 5752 5752 5753 5753 5753 5753 5753 5753 5753 5753 5753 5753 5752 5752 5752 5752 5752 5753 5753 5753 5753 5753 5754 5754 5755 5755 5755 5756 5756 5756 5756 5756 5756 5756 5757
5744 5744 5745 5745 5745 5745 5745 5745 5746 5746 5745 5745 5746 5747 5748 5749 5749 5749 5749 5749 5748 5747 5748 5747 5747 5749 5750 5750 5750 5751 5751 5752 5751 5751 5751 5750 5750 5750 5750 5750 5750 5749 5749 5749 5749 5749 5749 5749 5749 5749 5750 5750 5750 5750 5750 5751 5751 5751 5751 5751 5751 5751 5751 5751 5751 5751 5751 5751 5751 5751 5751 5751 5752 5752 5752 5753 5753 5753 5753 5753 5754 5754 5754 5754 5754
5740 5741 5742 5742 5743 5743 5743 5743 5743 5743 5742 5742 5742 5743 5745 5746 5746 5747 5746 5746 5743 5742 5743 5745 5745 5747 5748 5747 5746 5747 5748 5749 5749 5748 5748 5747 5747 5747 5747 5747 5747 5747 5747 5747 5747 5747 5747 5747 5747 5747 5747 5747 5748 5748 5748 5748 5749 5749 5749 5749 5749 5749 5749 5749 5749 5749 5749 5749 5749 5749 5750 5750 5750 5750 5750 5750 5751 5751 5751 5751 5751 5752 5752 5752 5752
5737 5737 5738 5739 5740 5740 5740 5740 5740 5740 5739 5738 5739 5740 5741 5742 5743 5743 5743 5743 5742 5740 5741 5743 5744 5745 5745 5744 5743 5744 5746 5747 5747 5746 5745 5745 5745 5744 5744 5745 5745 5745 5745 5745 5745 5745 5745 5745 5745 5745 5745 5745 5745 5746 5746 5746 5747 5747 5747 5747 5747 5747 5747 5748 5748 5748 5748 5748 5748 5748 5748 5748 5748 5748 5748 5748 5749 5749 5749 5749 5749 5750 5750 5750 5750
5732 5733 5735 5736 5737 5737 5737 5737 5738 5737 5736 5736 5736 5737 5738 5738 5739 5740 5740 5741 5741 5740 5739 5740 5740 5741 5741 5741 5741 5742 5743 5744 5744 5743 5742 5742 5742 5742 5742 5742 5743 5743 5743 5743 5743 5743 5743 5743 5743 5744 5743 5743 5744 5744 5744 5745 5745 5745 5745 5745 5745 5745 5745 5746 5746 5746 5746 5746 5746 5746 5747 5747 5747 5747 5747 5747 5747 5747 5747 5747 5747 5747 5748 5748 5748
5728 5729 5731 5732 5733 5734 5734 5734 5735 5734 5734 5733 5734 5734 5735 5735 5736 5737 5737 5738 5738 5737 5736 5735 5736 5737 5737 5738 5738 5738 5739 5740 5740 5740 5740 5740 5740 5740 5739 5739 5740 5740 5740 5740 5740 5740 5741 5741 5741 5742 5742 5742 5742 5742 5743 5743 5743 5743 5743 5743 5743 5743 5743 5743 5744 5744 5744 5744 5744 5744 5745 5745 5745 5745 5745 5745 5745 5745 5746 5746 5746 5746 5746 5746 5746
5725 5726 5727 5728 5730 5731 5731 5731 5731 5731 5731 5731 5732 5732 5732 5733 5733 5733 5734 5734 5735 5734 5734 5733 5733 5733 5734 5735 5735 5735 5736 5736 5736 5737 5737 5738 5738 5738 5738 5737 5737 5737 5737 5738 5738 5737 5738 5738 5739 5739 5740 5740 5741 5741 5741 5741 5742 5742 5742 5742 5742 5742 5742 5741 5741 5741 5741 5742 5742 5742 5742 5742 5743 5743 5743 5743 5744 5744 5744 5744 5744 5744 5744 5745 5745
5723 5724 5724 5725 5726 5727 5728 5729 5729 5729 5728 5728 5729 5730 5730 5729 5730 5730 5730 5731 5731 5731 5731 5730 5730 5730 5731 5732 5733 5733 5733 5733 5733 5734 5735 5736 5736 5736 5736 5736 5735 5735 5735 5735 5735 5735 5735 5736 5737 5737 5738 5738 5739 5739 5739 5740 5740 5740 5740 5740 5740 5740 5740 5740 5740 5739 5739 5739 5739 5739 5740 5740 5740 5741 5741 5741 5742 5742 5742 5743 5743 5743 5743 5743 5743
5721 5721 5722 5722 5722 5723 5724 5725 5726 5727 5726 5726 5726 5726 5726 5726 5726 5726 5727 5727 5728 5728 5728 5728 5728 5729 5729 5729 5729 5730 5730 5730 5731 5732 5733 5733 5734 5734 5734 5734 5733 5733 5733 5732 5732 5733 5733 5734 5734 5735 5735 5736 5736 5737 5737 5737 5738 5738 5738 5738 5738 5738 5738 5738 5738 5738 5737 5737 5737 5737 5737 5738 5738 5738 5739 5739 5740 5740 5740 5741 5741 5741 5741 5741 5741
5719 5719 5720 5719 5719 5720 5721 5721 5722 5723 5723 5723 5723 5723 5723 5723 5723 5722 5723 5723 5724 5725 5726 5726 5726 5726 5726 5726 5726 5727 5728 5728 5729 5730 5730 5731 5731 5732 5732 5731 5731 5731 5731 5730 5730 5730 5731 5731 5732 5732 5732 5732 5733 5734 5735 5735 5735 5736 5736 5736 5735 5735 5736 5736 5736 5736 5736 5736 5736 5736 5736 5736 5736 5737 5737 5737 5737 5738 5738 5738 5739 5739 5739 5739 5739
5716 5717 5717 5717 5717 5717 5717 5717 5718 5718 5719 5719 5719 5719 5719 5720 5720 5720 5720 5720 5721 5722 5723 5724 5724 5723 5723 5723 5723 5724 5725 5726 5726 5727 5728 5728 5728 5729 5729 5729 5729 5729 5729 5729 5728 5728 5728 5728 5729 5729 5729 5729 5730 5731 5732 5732 5733 5733 5733 5734 5734 5733 5733 5733 5733 5734 5734 5734 5734 5734 5734 5734 5734 5734 5735 5735 5735 5735 5735 5736 5736 5736 5736 5737 5737
5713 5714 5714 5714 5715 5715 5715 5714 5714 5714 5714 5714 5715 5715 5715 5716 5716 5716 5716 5716 5717 5718 5718 5719 5719 5719 5718 5719 5720 5721 5722 5723 5724 5724 5725 5725 5724 5725 5725 5725 5726 5727 5727 5726 5726 5726 5726 5726 5726 5726 5726 5726 5726 5727 5728 5729 5729 5730 5730 5731 5731 5731 5731 5731 5731 5731 5732 5732 5732 5731 5731 5732 5732 5732 5732 5732 5732 5732 5733 5733 5733 5734 5734 5734 5734
5710 5710 5711 5711 5711 5711 5711 5711 5711 5711 5710 5711 5710 5710 5711 5712 5712 5712 5712 5712 5713 5713 5712 5712 5713 5714 5714 5715 5716 5717 5718 5719 5721 5722 5722 5722 5721 5721 5722 5722 5723 5723 5723 5723 5723 5724 5724 5723 5723 5724 5724 5724 5724 5724 5724 5725 5726 5726 5727 5728 5728 5728 5729 5729 5728 5729 5729 5729 5729 5729 5729 5729 5729 5729 5729 5729 5729 5729 5730 5730 5730 5730 5731 5731 5731
5706 5706 5707 5707 5707 5708 5708 5708 5708 5707 5707 5707 5707 5707 5707 5707 5707 5708 5707 5707 5708 5708 5708 5708 5709 5711 5711 5712 5713 5714 5715 5716 5717 5718 5719 5719 5718 5718 5719 5719 5719 5719 5720 5719 5720 5720 5720 5720 5720 5720 5721 5721 5721 5721 5722 5722 5722 5723 5723 5724 5725 5725 5725 5725 5726 5726 5726 5726 5726 5726 5726 5725 5725 5725 5725 5726 5726 5726 5727 5727 5727 5727 5728 5728 5728
5702 5702 5703 5704 5704 5705 5705 5705 5705 5705 5704 5704 5703 5703 5703 5703 5702 5703 5703 5703 5704 5705 5705 5706 5706 5707 5708 5709 5710 5711 5711 5712 5713 5713 5714 5715 5714 5714 5715 5716 5716 5716 5716 5716 5716 5716 5717 5717 5717 5717 5718 5718 5718 5719 5719 5719 5719 5719 5719 5720 5721 5721 5721 5721 5722 5722 5722 5722 5722 5722 5722 5722 5722 5722 5722 5722 5722 5722 5723 5723 5724 5724 5724 5724 5724
5699 5698 5699 5700 5701 5701 5702 5702 5702 5702 5702 5701 5700 5700 5699 5699 5699 5699 5700 5700 5700 5701 5702 5702 5702 5703 5704 5704 5705 5707 5707 5708 5709 5709 5709 5709 5709 5710 5710 5711 5712 5712 5713 5713 5713 5713 5713 5713 5713 5714 5715 5716 5716 5716 5716 5716 5716 5716 5717 5717 5718 5718 5718 5718 5718 5718 5719 5719 5719 5719 5718 5718 5719 5718 5718 5718 5718 5719 5719 5719 5720 5720 5720 5720 5720
5695 5695 5695 5696 5696 5697 5698 5698 5699 5699 5699 5699 5698 5696 5696 5696 5696 5696 5696 5696 5697 5697 5697 5698 5698 5699 5699 5700 5701 5701 5702 5703 5704 5704 5705 5705 5705 5705 5706 5707 5707 5708 5708 5709 5709 5709 5708 5708 5709 5710 5711 5712 5713 5713 5713 5713 5713 5714 5714 5714 5715 5715 5715 5715 5715 5715 5715 5715 5716 5716 5715 5714 5714 5714 5714 5714 5714 5714 5715 5715 5715 5715 5716 5716 5716
5690 5690 5690 5691 5691 5692 5692 5693 5694 5695 5695 5696 5695 5694 5694 5694 5694 5693 5693 5692 5693 5693 5693 5693 5694 5694 5695 5695 5696 5696 5697 5697 5698 5699 5699 5700 5700 5700 5701 5701 5702 5703 5703 5704 5704 5704 5704 5704 5705 5706 5707 5708 5708 5708 5708 5708 5709 5710 5710 5711 5711 5711 5711 5711 5711 5711 5711 5711 5711 5711 5711 5710 5709 5710 5710 5710 5710 5710 5710 5710 5710 5710 5710 5710 5710
5685 5685 5684 5685 5685 5686 5686 5686 5688 5689 5690 5691 5691 5691 5691 5691 5690 5689 5689 5689 5689 5689 5690 5690 5690 5690 5691 5691 5691 5692 5692 5692 5693 5693 5693 5694 5694 5694 5695 5695 5696 5697 5698 5699 5699 5699 5699 5699 5700 5701 5702 5702 5702 5703 5703 5703 5703 5704 5705 5705 5706 5706 5706 5706 5706 5706 5706 5707 5707 5706 5706 5705 5704 5704 5704 5704 5705 5705 5705 5705 5705 5704 5704 5704 5705
5680 5679 5679 5679 5679 5680 5680 5680 5681 5682 5684 5684 5685 5685 5685 5685 5685 5685 5684 5685 5685 5685 5685 5686 5686 5686 5687 5687 5687 5688 5688 5688 5688 5688 5688 5688 5688 5688 5689 5690 5690 5691 5692 5693 5694 5694 5694 5694 5694 5695 5695 5696 5696 5697 5697 5698 5698 5698 5699 5699 5699 5700 5700 5700 5700 5701 5701 5701 5701 5701 5701 5700 5699 5699 5699 5699 5699 5700 5699 5699 5699 5697 5697 5698 5698
5673 5673 5673 5673 5674 5675 5674 5674 5674 5676 5677 5677 5678 5678 5678 5679 5680 5679 5679 5679 5679 5679 5680 5680 5680 5681 5682 5682 5683 5683 5683 5684 5684 5683 5683 5683 5683 5683 5683 5684 5684 5685 5686 5687 5687 5688 5688 5688 5688 5689 5689 5689 5689 5690 5690 5691 5691 5691 5692 5692 5693 5693 5694 5694 5694 5694 5695 5695 5695 5695 5695 5695 5694 5693 5693 5693 5694 5694 5693 5693 5692 5691 5690 5691 5691
5665 5666 5666 5667 5668 5668 5667 5667 5668 5670 5671 5670 5671 5672 5672 5673 5674 5673 5673 5673 5673 5674 5674 5675 5675 5675 5676 5676 5677 5677 5678 5678 5678 5678 5678 5678 5678 5678 5678 5678 5678 5679 5679 5680 5680 5680 5681 5681 5681 5682 5682 5682 5682 5683 5683 5684 5684 5685 5685 5685 5686 5686 5687 5687 5687 5687 5688 5688 5688 5688 5688 5688 5687 5687 5688 5688 5687 5687 5686 5686 5685 5685 5684 5684 5683
5657 5659 5661 5662 5662 5661 5660 5660 5661 5662 5663 5663 5664 5665 5666 5666 5667 5667 5666 5667 5667 5668 5668 5669 5669 5669 5670 5670 5671 5671 5672 5672 5672 5672 5673 5673 5673 5672 5672 5672 5672 5673 5673 5674 5674 5674 5674 5674 5674 5674 5675 5674 5674 5675 5676 5676 5677 5678 5679 5679 5679 5680 5680 5680 5680 5681 5681 5681 5681 5681 5681 5681 5681 5681 5681 5681 5680 5680 5679 5679 5679 5678 5677 5676 5676
5651 5653 5655 5656 5655 5655 5654 5653 5654 5655 5655 5655 5656 5658 5658 5659 5660 5660 5660 5661 5661 5661 5661 5662 5663 5663 5664 5664 5664 5665 5665 5666 5666 5666 5666 5666 5666 5666 5666 5666 5666 5666 5666 5667 5667 5667 5667 5668 5668 5669 5669 5668 5668 5668 5668 5668 5669 5670 5671 5672 5672 5673 5673 5673 5673 5674 5674 5674 5674 5674 5674 5674 5674 5674 5674 5674 5674 5673 5673 5672 5672 5671 5670 5670 5669
5646 5646 5647 5649 5650 5650 5649 5648 5648 5649 5649 5648 5649 5651 5652 5652 5653 5654 5654 5654 5654 5654 5654 5655 5656 5657 5658 5658 5658 5658 5659 5659 5660 5660 5660 5660 5660 5660 5660 5660 5660 5660 5660 5660 5660 5660 5660 5661 5662 5662 5662 5663 5662 5662 5662 5662 5662 5662 5663 5664 5664 5664 5665 5665 5665 5666 5667 5667 5667 5667 5667 5667 5667 5667 5666 5666 5666 5666 5665 5665 5664 5664 5664 5663 5662
5640 5640 5641 5641 5642 5643 5643 5643 5643 5644 5643 5641 5642 5643 5644 5645 5646 5646 5647 5647 5646 5646 5647 5648 5649 5650 5651 5652 5652 5652 5652 5653 5653 5653 5654 5654 5653 5653 5653 5653 5653 5653 5653 5653 5653 5653 5653 5654 5654 5655 5655 5656 5656 5656 5656 5656 5656 5656 5656 5656 5656 5656 5657 5657 5657 5659 5659 5659 5659 5660 5660 5660 5659 5659 5659 5658 5658 5658 5658 5657 5657 5657 5656 5655 5654
5632 5633 5634 5634 5634 5635 5635 5636 5637 5638 5637 5636 5636 5635 5635 5636 5637 5638 5640 5640 5640 5640 5640 5641 5642 5643 5644 5644 5645 5645 5645 5646 5646 5646 5646 5646 5646 5646 5647 5647 5647 5647 5647 5647 5647 5647 5647 5647 5647 5648 5648 5648 5649 5649 5649 5649 5649 5650 5649 5649 5649 5649 5649 5650 5650 5651 5652 5652 5652 5652 5652 5652 5651 5651 5651 5651 5650 5650 5650 5650 5649 5649 5648 5647 5646
5623 5624 5625 5626 5626 5626 5626 5627 5628 5629 5629 5630 5630 5628 5627 5628 5629 5630 5632 5633 5634 5634 5634 5634 5635 5635 5636 5636 5637 5637 5638 5638 5638 5638 5638 5638 5639 5639 5640 5641 5641 5641 5640 5640 5640 5640 5640 5640 5641 5641 5641 5641 5642 5642 5642 5642 5643 5643 5643 5643 5643 5643 5643 5643 5644 5644 5644 5644 5644 5644 5644 5643 5643 5643 5643 5643 5643 5643 5643 5642 5642 5641 5640 5639 5639
5615 5615 5615 5617 5618 5618 5618 5618 5619 5619 5620 5621 5621 5620 5620 5620 5621 5622 5623 5625 5626 5627 5627 5627 5627 5628 5628 5629 5629 5629 5630 5630 5630 5630 5631 5631 5631 5632 5633 5633 5634 5634 5634 5634 5634 5634 5634 5634 5634 5634 5634 5635 5635 5635 5635 5635 5635 5636 5636 5637 5637 5637 5637 5637 5637 5638 5638 5637 5637 5636 5636 5636 5636 5636 5636 5636 5636 5636 5635 5634 5634 5633 5632 5632 5631
5607 5607 5607 5608 5609 5610 5610 5610 5610 5610 5611 5612 5612 5612 5612 5612 5613 5614 5615 5616 5617 5618 5619 5620 5620 5620 5621 5622 5622 5622 5622 5622 5623 5623 5624 5624 5625 5625 5626 5626 5626 5626 5626 5627 5627 5627 5627 5628 5628 5628 5628 5628 5628 5629 5629 5629 5629 5629 5629 5630 5630 5630 5631 5631 5631 5631 5631 5631 5630 5630 5629 5629 5629 5629 5629 5629 5629 5628 5628 5627 5626 5625 5625 5624 5624
5599 5599 5599 5600 5601 5602 5602 5603 5602 5602 5602 5603 5603 5604 5604 5605 5605 5606 5607 5607 5608 5609 5610 5611 5612 5613 5613 5613 5613 5613 5614 5614 5615 5616 5617 5618 5618 5618 5619 5619 5619 5619 5619 5619 5620 5620 5621 5621 5621 5622 5622 5622 5623 5623 5623 5623 5623 5623 5623 5623 5623 5623 5623 5623 5623 5624 5624 5624 5624 5624 5624 5623 5623 5623 5623 5622 5622 5621 5621 5620 5619 5618 5618 5617 5616
5592 5592 5592 5593 5593 5594 5595 5595 5595 5595 5595 5595 5595 5596 5597 5597 5598 5598 5599 5599 5600 5601 5602 5603 5604 5604 5605 5605 5605 5605 5606 5607 5608 5609 5610 5610 5611 5611 5611 5612 5612 5612 5612 5613 5613 5614 5614 5614 5615 5615 5615 5616 5616 5617 5617 5617 5617 5617 5617 5618 5617 5617 5617 5616 5617 5617 5618 5618 5618 5618 5618 5617 5617 5616 5616 5616 5615 5615 5614 5613 5612 5612 5611 5610 5609
5584 5584 5585 5585 5585 5586 5587 5587 5587 5587 5587 5587 5587 5588 5589 5590 5590 5591 5592 5592 5593 5594 5595 5595 5595 5596 5596 5597 5597 5598 5599 5600 5600 5601 5602 5603 5603 5604 5604 5604 5605 5605 5606 5606 5607 5607 5608 5608 5608 5608 5609 5609 5610 5610 5611 5611 5611 5611 5611 5611 5611 5611 5611 5611 5611 5612 5612 5612 5612 5611 5611 5611 5611 5610 5610 5609 5609 5608 5608 5607 5606 5605 5604 5603 5602
5575 5575 5575 5575 5576 5577 5578 5578 5578 5578 5578 5578 5578 5579 5580 5581 5582 5583 5583 5584 5585 5586 5587 5588 5588 5588 5588 5589 5590 5590 5591 5592 5592 5593 5594 5595 5596 5597 5597 5598 5598 5599 5599 5599 5600 5600 5601 5601 5601 5602 5602 5603 5603 5604 5604 5604 5605 5605 5605 5605 5605 5605 5605 5606 5606 5606 5606 5606 5606 5606 5605 5605 5605 5604 5604 5603 5603 5602 5601 5600 5600 5599 5598 5597 5596
5566 5566 5566 5566 5566 5567 5568 5569 5569 5569 5569 5570 5570 5570 5570 5571 5573 5574 5574 5575 5576 5577 5579 5580 5580 5580 5581 5581 5582 5582 5583 5583 5584 5585 5586 5588 5589 5590 5591 5591 5592 5592 5592 5593 5593 5594 5594 5594 5594 5595 5596 5596 5597 5597 5598 5598 5598 5598 5599 5599 5599 5600 5600 5600 5600 5600 5601 5601 5601 5600 5600 5600 5600 5599 5598 5598 5597 5596 5596 5595 5594 5593 5592 5591 5591
5557 5557 5557 5557 5557 5557 5558 5559 5559 5560 5561 5561 5561 5561 5562 5563 5564 5565 5566 5566 5567 5568 5569 5570 5571 5572 5573 5574 5574 5574 5575 5576 5577 5578 5579 5581 5582 5583 5584 5584 5585 5585 5585 5586 5587 5587 5587 5588 5588 5589 5589 5590 5590 5591 5591 5591 5592 5592 5593 5593 5594 5594 5595 5595 5595 5595 5595 5595 5595 5595 5595 5595 5595 5594 5593 5593 5592 5591 5590 5589 5588 5588 5587 5586 5586
5547 5547 5547 5547 5547 5548 5548 5549 5550 5551 5551 5552 5552 5553 5554 5555 5556 5557 5557 5558 5559 5559 5560 5561 5562 5564 5565 5566 5567 5567 5568 5569 5570 5571 5572 5573 5575 5576 5577 5577 5578 5578 5579 5579 5580 5580 5581 5581 5582 5582 5583 5583 5584 5584 5584 5585 5586 5587 5587 5588 5588 5589 5589 5590 5590 5590 5590 5590 5591 5591 5590 5590 5589 5589 5588 5588 5587 5586 5585 5584 5584 5583 5583 5583 5582
5537 5537 5537 5537 5537 5538 5538 5539 5540 5541 5542 5543 5544 5544 5545 5546 5547 5548 5549 5550 5551 5551 5552 5553 5554 5556 5557 5558 5560 5561 5562 5563 5564 5565 5565 5566 5568 5569 5569 5570 5571 5572 5572 5572 5573 5574 5574 5575 5576 5576 5577 5577 5578 5578 5579 5580 5581 5581 5582 5582 5583 5583 5584 5584 5585 5585 5585 5586 5586 5586 5585 5585 5585 5584 5583 5583 5582 5582 5581 5581 5581 5580 5580 5579 5578
5526 5527 5528 5528 5528 5528 5529 5530 5531 5532 5533 5534 5535 5536 5537 5538 5539 5539 5540 5541 5543 5544 5545 5545 5546 5547 5549 5550 5552 5553 5555 5556 5556 5557 5559 5560 5561 5562 5562 5563 5564 5565 5565 5566 5566 5567 5568 5569 5569 5570 5570 5571 5572 5572 5573 5574 5575 5576 5576 5577 5577 5578 5579 5579 5580 5580 5581 5581 5581 5581 5581 5580 5580 5579 5579 5579 5578 5578 5578 5578 5578 5577 5576 5575 5574